カタログに戻る

STARLINK-5896

運用中通信VLEO
NORAD 55930·PAYLOAD·🇺🇸 United States

打ち上げ Mar 17, 2023 から Vandenberg Space Force Base

Loading…

次のパス (今後24時間)

TLE

最新Source: CelesTrak SupGP

元期: Sep 15, 2026, 01:23 UTC

1 55930C 23037S   26258.05812500 -.00031281  00000+0 -26214-2 0  2582
2 55930  70.0015 166.9386 0003003 271.3309 215.1639 14.98347286    17

AllMySatでSTARLINK-5896をリアルタイム追跡

Download on the App Store